Simultaneous Nadir Overpasses (SNOs) Predictions

Prediction of SNOs between METOP-B and TERRA Satellite Orbit:

Table of predicted SNOs for the next 14.0 days since TLE Epoch: 7/5/2025
Index Date (METOP-B) Time (METOP-B) Lat,Lon (METOP-B) SZA (METOP-B ) Date (TERRA) Time (TERRA) Lat,Lon (TERRA) SZA (TERRA ) Distance(km) Time Diff (sec)
1 07/05/2025 11:53:59 -77.85,-178.06 124.95 07/05/2025 11:54:26 -77.86,-177.99 124.94 1.72 27
2 07/05/2025 12:44:26 78.40, -7.93 55.61 07/05/2025 12:43:33 78.40, -7.89 55.61 0.88 53
3 07/08/2025 00:43:08 -77.52, -11.88 125.00 07/08/2025 00:44:14 -77.53, -11.80 125.00 2.21 66
4 07/08/2025 01:33:34 78.12, 158.31 55.60 07/08/2025 01:33:20 78.13, 158.38 55.60 1.81 14
5 07/10/2025 14:22:41 77.83, -35.42 55.62 07/10/2025 14:23:06 77.84, -35.36 55.62 1.37 25
6 07/10/2025 15:13:10 -78.34, 134.52 123.87 07/10/2025 15:12:14 -78.35, 134.59 123.87 1.65 56
7 07/13/2025 03:11:48 77.58, 131.10 55.72 07/13/2025 03:12:52 77.57, 131.08 55.71 0.47 64
8 07/13/2025 04:02:15 -78.18, -58.64 123.68 07/13/2025 04:01:58 -78.18, -58.65 123.68 0.28 17
9 07/15/2025 16:51:26 -77.76, 106.99 123.71 07/15/2025 16:51:47 -77.77, 107.10 123.70 2.99 21
10 07/15/2025 17:41:53 78.30, -82.94 56.84 07/15/2025 17:40:54 78.31, -82.83 56.85 2.74 59
11 07/18/2025 05:40:30 -77.62, -85.94 123.41 07/18/2025 05:41:30 -77.62, -85.99 123.42 1.38 60



Historial Predications of SNOs between METOP-B and TERRA
